FW1577 Weather Reports


time (UTC)temp
F
wind
direction
speed
knots
gust
knots
rain 1hr
in
rain 24hr
in
rain mn
in
humidity
%
barometer
mb
20260504050013 59 122 1.7 16.5 0.00 0.00 0.00 70 978.2
20260504044504 59 122 3.5 14.8 0.00 0.00 0.00 69 978.3
20260504043004 59 103 5.2 12.2 0.00 0.00 0.00 69 978.3
20260504041502 59 98 7.0 13.0 0.00 0.00 0.00 70 978.3
20260504040003 59 121 5.2 10.4 0.00 0.00 0.00 70 978.3
20260504034502 59 120 4.3 14.8 0.00 0.00 0.00 70 978.3
20260504033002 59 97 1.7 12.2 0.00 0.00 0.00 71 978.4
20260504031702 59 86 5.2 15.6 0.00 0.00 0.00 70 978.5
20260504030059 59 94 6.1 16.5 0.00 0.00 0.00 72 978.5
20260504024556 59 171 3.5 10.4 0.00 0.00 0.00 74 978.6
20260504023055 58 310 4.3 12.2 0.00 0.00 0.00 75 978.9
20260504021555 58 90 7.0 15.6 0.00 0.00 0.00 74 978.9
20260504020127 59 77 7.8 18.2 0.00 0.00 0.00 75 979.1
20260504014601 58 98 9.6 19.1 0.00 0.00 0.00 78 979.2
20260504013058 57 94 8.7 17.4 0.00 0.00 0.00 79 979.4
20260504011547 57 97 9.6 16.5 0.00 0.00 0.00 79 979.5
20260504010047 56 42 6.1 13.9 0.00 0.00 0.00 81 979.6
20260504004616 56 113 7.0 13.0 0.00 0.00 0.00 80 979.8
20260504003050 56 103 6.1 13.0 0.00 0.00 0.00 79 980.0
20260504001616 56 105 5.2 16.5 0.00 0.00 0.00 77 980.0
20260504000045 57 87 4.3 13.0 0.00 0.00 0.00 79 979.9
20260503234542 57 112 5.2 12.2 0.00 0.00 0.00 80 979.8
20260503233043 56 84 1.7 6.1 0.00 0.00 0.00 80 980.1
20260503231540 56 96 2.6 8.7 0.00 0.00 0.00 80 980.1
20260503230047 56 101 2.6 7.0 0.00 0.00 0.00 81 980.0
20260503224535 55 92 0.9 7.0 0.00 0.00 0.00 83 979.9
20260503223035 55 113 3.5 8.7 0.00 0.00 0.00 83 979.9
20260503221532 53 112 0.0 4.3 0.00 0.00 0.00 87 979.9
20260503220041 52 113 0.9 2.6 0.00 0.00 0.00 90 979.6
20260503214530 50 87 0.0 0.0 0.00 0.00 0.00 94 979.9
20260503213028 49 90 0.0 0.0 0.00 0.00 0.00 92 979.9
20260503211528 49 89 0.0 0.9 0.00 0.00 0.00 93 979.8
20260503210027 50 89 0.0 0.0 0.00 0.00 0.00 90 979.6
20260503204526 51 89 0.0 2.6 0.00 0.00 0.00 90 979.4
20260503203043 49 99 0.0 0.0 0.00 0.00 0.00 91 979.4
20260503201528 49 98 0.0 1.7 0.00 0.00 0.00 91 979.4
20260503200023 50 107 0.0 1.7 0.00 0.00 0.00 91 979.2
20260503194535 50 127 0.0 2.6 0.00 0.00 0.00 92 979.0
20260503193020 50 98 0.9 1.7 0.00 0.00 0.00 92 979.1
20260503191518 50 102 0.9 2.6 0.00 0.00 0.00 92 979.2
20260503190033 50 89 0.0 2.6 0.00 0.00 0.00 91 979.3
20260503184522 50 90 0.0 2.6 0.00 0.00 0.00 93 979.5
20260503183013 50 99 0.0 2.6 0.00 0.00 0.00 94 979.6
20260503181511 51 115 1.7 3.5 0.00 0.00 0.00 96 979.6
20260503180011 50 93 0.0 1.7 0.00 0.00 0.00 95 979.8
20260503174610 50 90 0.0 1.7 0.00 0.00 0.00 94 979.9
20260503173008 49 94 0.0 0.0 0.00 0.00 0.00 95 980.0
20260503171507 49 98 0.0 0.0 0.00 0.00 0.00 93 979.9
20260503081524 57 101 3.5 6.1 0.00 0.00 0.00 88 979.1
20260503071508 58 69 0.0 5.2 0.00 0.00 0.00 95 978.8